Beaufort, NC

10:16 PM EST on December 03, 2016 (GMT -0500)
Piney Island

Weather History for KNBT - August, 2013

Change the Weather History Date:

Saturday, August 3, 2013

  Actual Average (KMRH) Record (KMRH)
Temperature  
Mean Temperature 83 °F -  
Max Temperature 89 °F 87 °F 100 °F (2012)
Min Temperature 78 °F 72 °F 64 °F (1985)
Cooling Degree Days 18    
Growing Degree Days 33 (Base 50)    
Moisture  
Dew Point 76 °F    
Average Humidity 83    
Maximum Humidity 94    
Minimum Humidity 61    
Precipitation  
Precipitation 0.11 in - - ()
Sea Level Pressure  
Sea Level Pressure 30.01 in    
Wind  
Wind Speed 9 mph (SW)    
Max Wind Speed 17 mph    
Max Gust Speed 21 mph    
Visibility 10 miles    
Events Rain    
Averages and records for this station are not official NWS values.
T = Trace of Precipitation, MM = Missing Value Source: NWS Daily Summary

Daily Weather History Graph

Daily Weather History Graph

Search for Another Location

Airport or City:

Trip Planner

Search our weather history database for the weather conditions in past years. The results will help you decide how hot, cold, wet, or windy it might be!

Date:

Astronomy

Aug. 03, 2013 Rise Set
Actual Time 6:16 AM EDT 8:06 PM EDT
Civil Twilight 5:49 AM EDT 8:34 PM EDT
Nautical Twilight 5:15 AM EDT 9:07 PM EDT
Astronomical Twilight 4:40 AM EDT 9:43 PM EDT
Moon 3:25 AM EDT (8/3) 5:46 PM EDT (8/3)
Length of Visible Light 14h 44m
Length of Day
13h 49m
Waning Crescent, 9% of the Moon is Illuminated
Aug 3
Waning Crescent
Aug 6
New
Aug 14
First Quarter
Aug 20
Full
Aug 28
Last Quarter

Hourly Weather History & Observations

Time (EDT) Temp. Heat Index Dew Point Humidity Pressure Visibility Wind Dir Wind Speed Gust Speed Precip Events Conditions
12:56 AM 80.1 °F 85.8 °F 77.0 °F 90% 30.05 in 10.0 mi SW 9.2 mph - N/A   Clear
1:56 AM 80.1 °F 85.8 °F 77.0 °F 90% 30.04 in 10.0 mi SW 6.9 mph - N/A   Clear
2:56 AM 80.1 °F 85.8 °F 77.0 °F 90% 30.03 in 10.0 mi SSW 6.9 mph - N/A   Clear
3:56 AM 79.0 °F - 77.0 °F 94% 30.03 in 10.0 mi SSW 5.8 mph - N/A   Clear
4:56 AM 80.1 °F 85.8 °F 77.0 °F 90% 30.04 in 10.0 mi SW 6.9 mph - N/A   Partly Cloudy
5:56 AM 80.1 °F 85.8 °F 77.0 °F 90% 30.05 in 10.0 mi SSW 5.8 mph - N/A   Clear
6:56 AM 80.1 °F 85.8 °F 77.0 °F 90% 30.05 in 10.0 mi SW 5.8 mph - N/A   Clear
7:56 AM 82.0 °F 91.0 °F 78.1 °F 88% 30.06 in 10.0 mi SW 9.2 mph - N/A   Scattered Clouds
8:56 AM 84.0 °F 93.7 °F 77.0 °F 79% 30.06 in 10.0 mi SW 13.8 mph - N/A   Scattered Clouds
9:56 AM 86.0 °F 95.1 °F 75.0 °F 70% 30.05 in 10.0 mi WSW 13.8 mph 18.4 mph N/A   Partly Cloudy
10:56 AM 87.1 °F 95.4 °F 73.9 °F 65% 30.05 in 10.0 mi WSW 10.4 mph 18.4 mph N/A   Partly Cloudy
11:56 AM 84.0 °F 93.7 °F 77.0 °F 79% 30.04 in 9.0 mi SSW 13.8 mph 17.3 mph 0.00 in Rain Light Rain
12:28 PM 78.8 °F - 75.2 °F 89% 30.03 in 2.5 mi SW 8.1 mph - 0.10 in Rain Rain
12:38 PM 78.8 °F - 73.4 °F 83% 30.03 in 5.0 mi SSW 5.8 mph - 0.11 in Rain Light Rain
12:56 PM 80.1 °F 85.4 °F 75.9 °F 87% 30.04 in 10.0 mi SW 6.9 mph - 0.11 in   Scattered Clouds
1:56 PM 84.9 °F 95.3 °F 77.0 °F 77% 30.02 in 10.0 mi SW 9.2 mph - 0.00 in   Partly Cloudy
2:56 PM 86.0 °F 96.0 °F 75.9 °F 72% 30.00 in 10.0 mi SW 9.2 mph - N/A   Clear
3:56 PM 88.0 °F 95.6 °F 73.0 °F 61% 29.98 in 10.0 mi SSW 17.3 mph - N/A   Partly Cloudy
4:56 PM 87.1 °F 97.3 °F 75.9 °F 69% 29.98 in 10.0 mi SSW 13.8 mph 20.7 mph N/A   Clear
5:56 PM 84.0 °F 91.9 °F 75.0 °F 74% 29.96 in 10.0 mi SSW 12.7 mph - N/A   Partly Cloudy
6:56 PM 84.0 °F 93.7 °F 77.0 °F 79% 29.96 in 10.0 mi SSW 10.4 mph - N/A   Clear
7:56 PM 82.0 °F 89.4 °F 75.9 °F 82% 29.95 in 10.0 mi SSW 10.4 mph - N/A   Clear
8:56 PM 81.0 °F 87.9 °F 77.0 °F 88% 29.95 in 10.0 mi SSW 5.8 mph - N/A   Clear
9:56 PM 80.1 °F 85.8 °F 77.0 °F 90% 29.97 in 10.0 mi SSW 5.8 mph - N/A   Clear
10:56 PM 79.0 °F - 77.0 °F 94% 29.98 in 10.0 mi SSW 4.6 mph - N/A   Clear
11:56 PM 79.0 °F - 77.0 °F 94% 29.96 in 10.0 mi WSW 5.8 mph - N/A   Clear